Content
SEND FEEDBACK

Daily
Averages
Monthly
Summary
Colombia

CALI, COLOMBIA


Home > South America > Colombia
Elevation: 3178 feet     Latitude: 03 33N     Longitude: 076 23W

WEATHER
 
SELECT A DAY
Number of Records: 159,482;   Date Range: 6/30/96 - 8/31/14
 
SHARE

PRINT THIS DATA

[ ← Previous Day ]
WEATHER ALMANAC - JANUARY 31, 2013
[ Next Day → ]
[ °C ]   °F
Weather ElementAverageHighLow
Temperature77.6 °F90 °F (1:00 pm)68 °F (5:30 am)
Dewpoint65.5 °F68 °F (1:00 am)62.6 °F (3:00 pm)
Humidity66.9 %94 % (5:00 am)32 % (1:00 pm)
Barometer29.89 in29.97 in (9:00 am)29.79 in (4:00 pm)
Wind Speed5.8 mph12.7 mph (5:00 pm)
Weather ElementAverage
Visibility6.1 mi
Wind DirectionSSE (164.1 °)

Weather ElementTotal
Precipitation---
Cooling Degree Days14 (Base 65)
Growing Degree Days29 (Base 50)
Averaged from 31 records on January 31, 2013
WEATHER CONDITIONS BREAKOUT
WIND DIRECTION BREAKOUT
WEATHER BY HOUR - JANUARY 31, 2013
[ °C ]   °F
Local TimeTemperatureDewpointHumidityBarometerVisibilityWind DirectionWind SpeedGust SpeedPrecipitationEventsConditions
1:00 AM72.0 °F67.0 °F80 %6.0 miENE (70°)4.5 mphHaze
1:00 AM71.6 °F68.0 °F88 %29.93 in6.2 miENE (70°)4.6 mphScattered Clouds
2:00 AM71.6 °F66.2 °F83 %29.92 in6.2 miNE (40°)3.5 mphScattered Clouds
3:00 AM71.6 °F68.0 °F88 %29.91 in6.2 miEast (90°)4.6 mphScattered Clouds
4:00 AM71.0 °F67.0 °F82 %6.0 miCalmHaze
4:00 AM69.8 °F66.2 °F88 %29.92 in6.2 miCalmScattered Clouds
5:00 AM69.8 °F68.0 °F94 %29.91 in6.2 miCalmMostly Cloudy
5:30 AM68.0 °F66.2 °F94 %29.92 in6.2 miCalmScattered Clouds
6:00 AM68.0 °F66.2 °F94 %29.93 in6.2 miCalmScattered Clouds
7:00 AM68.0 °F65.0 °F87 %6.0 miCalmHaze
7:00 AM68.0 °F64.4 °F88 %29.94 in5.6 miCalmScattered Clouds
8:00 AM73.4 °F66.2 °F78 %29.96 in5.6 miCalmMostly Cloudy
9:00 AM77.0 °F66.2 °F69 %29.97 in5.6 miSouth (180°)3.5 mphMostly Cloudy
10:00 AM82.0 °F65.0 °F48 %6.0 miEast (100°)4.5 mphHaze
11:00 AM86.0 °F66.2 °F51 %29.82 in5.6 miNorth (350°)4.6 mphScattered Clouds
12:00 PM87.8 °F66.2 °F49 %29.90 in5.6 miNE (50°)5.8 mphMostly Cloudy
1:00 PM90.0 °F64.0 °F32 %6.0 miNNW (340°)8.9 mphHaze
1:00 PM89.6 °F64.4 °F43 %29.88 in6.2 miNNW (340°)8.1 mphScattered Clouds
2:00 PM89.6 °F64.4 °F43 %29.85 in6.2 miNNW (340°)5.8 mphScattered Clouds
3:00 PM89.6 °F62.6 °F40 %29.81 in6.2 miNW (310°)9.2 mphPartly Cloudy
4:00 PM78.0 °F64.0 °F52 %6.0 miNNW (340°)8.9 mphHaze
4:00 PM89.6 °F62.6 °F40 %29.79 in6.2 miNNW (340°)11.5 mphPartly Cloudy
5:00 PM86.0 °F62.6 °F45 %29.79 in6.2 miNNW (340°)12.7 mphPartly Cloudy
6:00 PM82.4 °F64.4 °F54 %29.80 in6.2 miNNW (340°)12.7 mphPartly Cloudy
7:00 PM79.0 °F64.0 °F52 %6.0 miNNW (340°)8.9 mphHaze
7:00 PM78.8 °F64.4 °F61 %29.83 in6.2 miNNW (340°)9.2 mphScattered Clouds
8:00 PM77.0 °F66.2 °F69 %29.86 in6.2 miNorth (350°)9.2 mphScattered Clouds
9:00 PM75.2 °F66.2 °F73 %29.89 in6.2 miNorth (10°)10.4 mphScattered Clouds
10:00 PM76.0 °F65.0 °F62 %6.0 miNNE (20°)11.2 mphHaze
10:00 PM75.2 °F66.2 °F73 %29.92 in6.2 miNNE (20°)11.5 mphMostly Cloudy
11:00 PM75.2 °F66.2 °F73 %29.92 in6.2 miNE (40°)5.8 mphMostly Cloudy
Hourly data recorded from SKCL, located miles away from Cali, Colombia







STORIES FROM OUR PARTNERS